Flag Weather past 2 weeks in Al-Jamiliyah, Qatar

Now
76 °F

Passing clouds.


Feels Like: 78 °F
Forecast: 77 / 86 °F
Wind: 10 mph from East

Location: Al Udeid

Current Time: Nov 24, 2014 at 11:28:15 PM

Latest Report: Nov 24, 2014 at 9:58 PM


Visibility: N/A

Pressure: 29.88 "Hg

Humidity: 80%

Dew point: 70 °F

Location of Al-JamiliyahLocation

Historic Weather in Al-Jamiliyah — Graph

°F

Al-Jamiliyah temperature yesterday

Maximum temperature yesterday: 86 °F (at 12:58 PM)
Minimum temperature yesterday: 65 °F (at 5:58 AM)
Average temperature yesterday: 76 °F

Past Weeks' High & Low Weather Summary

 TemperatureHumidityPressure
High88 °F (Nov 22, 2:58 PM)93% (Nov 23, 5:58 AM)30.20 "Hg (Nov 23, 5:58 AM)
Low60 °F (Nov 12, 5:58 AM)25% (Nov 16, 2:58 PM)29.85 "Hg (Nov 24, 4:58 PM)
Average74 °F57%30.04 "Hg
* Reported Nov 9 9:58 PM — Nov 24 9:58 PM, Al-Jamiliyah, Weather by CustomWeather, © 2014

Note: Actual official high and low records may vary slightly from our data, if they occured in-between our weather recording intervals... More about our weather records

Advertising

Al-Jamiliyah weather history for previous 24 hours

 ConditionsComfort  
Time TempWeatherWind HumidityBarometerVisibility
9:58 PM
Nov 24
76 °FPassing clouds.10 mph80%29.88 "HgN/A
8:58 PM77 °FPassing clouds.13 mph79%29.90 "HgN/A
7:58 PM78 °FPassing clouds.10 mph82%29.90 "HgN/A
6:58 PM78 °FOvercast.8 mph80%29.90 "HgN/A
5:58 PM78 °FPartly cloudy.18 mph80%29.86 "HgN/A
4:58 PM79 °FBroken clouds.16 mph76%29.85 "HgN/A
3:58 PM80 °FPartly sunny.13 mph69%29.88 "HgN/A
2:58 PM81 °FLight rain. More clouds than sun.14 mph64%29.89 "HgN/A
1:58 PM82 °FPartly sunny.16 mph61%29.87 "HgN/A
12:58 PM83 °FScattered clouds.16 mph58%29.89 "HgN/A
11:58 AM82 °FPartly sunny.14 mph58%29.91 "HgN/A
10:58 AM83 °FPartly sunny.13 mph56%29.93 "HgN/A
9:58 AM82 °FScattered clouds.13 mph55%29.96 "Hg5 mi
8:58 AM79 °FPartly sunny.12 mph61%29.98 "Hg5 mi
7:58 AM72 °FFog.7 mph87%29.99 "Hg4 mi
6:58 AM72 °FFog.3 mph85%29.97 "Hg5 mi
5:58 AM71 °FBroken clouds.3 mph86%29.93 "Hg5 mi
4:58 AM71 °FHaze.7 mph84%29.92 "Hg6 mi
3:58 AM70 °FClear.10 mph84%29.93 "HgN/A
2:58 AM72 °FPartly cloudy.9 mph77%29.91 "HgN/A
1:58 AM73 °FPassing clouds.8 mph78%29.91 "HgN/A
1:04 AM73 °FLight rain. Passing clouds.12 mph78%29.93 "Hg6 mi
11:58 PM
Nov 23
74 °FClear.7 mph79%29.94 "HgN/A
Weather by CustomWeather, © 2014

See weather overviewHow to use our weather pages